RAMBO LFMN-LFMN

Flight info

Callsign RAMBO
Flight time 0h 8m
Altitude 7000
Route /
Aircraft EUFI/M-SDGHITUY/LB1

Departure

Time 2026-05-06 19:18
Airport Nice-Côte d'Azur Airport (LFMN)

Arrival

Time 2026-05-06 19:27
Airport Nice-Côte d'Azur Airport (LFMN)
Time Latitude Longitude Altitude Speed Heading
2026-05-06 18:48 43.67085 7.22764 19 ft 0 kts 135°
2026-05-06 18:53 43.67085 7.22765 19 ft 0 kts 121°
2026-05-06 18:53 43.67087 7.22768 19 ft 1 kts 43°
2026-05-06 18:53 43.67093 7.22753 22 ft 0 kts 310°
2026-05-06 19:14 43.67094 7.22752 19 ft 2 kts 315°
2026-05-06 19:14 43.67101 7.22725 20 ft 6 kts 233°
2026-05-06 19:14 43.67060 7.22676 20 ft 11 kts 219°
2026-05-06 19:15 43.67010 7.22627 19 ft 1 kts 155°
2026-05-06 19:15 43.67005 7.22668 20 ft 10 kts 110°
2026-05-06 19:15 43.66965 7.22730 19 ft 10 kts 134°
2026-05-06 19:15 43.66880 7.22737 21 ft 14 kts 223°
2026-05-06 19:16 43.66804 7.22638 19 ft 18 kts 224°
2026-05-06 19:16 43.66697 7.22567 19 ft 18 kts 151°
2026-05-06 19:16 43.66607 7.22682 20 ft 16 kts 133°
2026-05-06 19:16 43.66537 7.22778 20 ft 12 kts 148°
2026-05-06 19:17 43.66511 7.22776 20 ft 0 kts 227°
2026-05-06 19:18 43.66497 7.22768 20 ft 6 kts 202°
2026-05-06 19:18 43.66463 7.22727 20 ft 13 kts 227°
2026-05-06 19:18 43.66111 7.22244 24 ft 166 kts 225°
2026-05-06 19:18 43.65000 7.21962 1839 ft 192 kts 98°
2026-05-06 19:19 43.65605 7.24073 2789 ft 299 kts 46°
2026-05-06 19:19 43.66723 7.25760 2055 ft 228 kts 46°
2026-05-06 19:19 43.68020 7.26575 981 ft 214 kts 284°
2026-05-06 19:19 43.67190 7.25547 330 ft 217 kts 141°
2026-05-06 19:20 43.67466 7.26689 733 ft 201 kts 319°
2026-05-06 19:20 43.68116 7.24810 619 ft 236 kts 240°
2026-05-06 19:20 43.67079 7.23529 103 ft 163 kts 219°
2026-05-06 19:20 43.66180 7.22330 30 ft 176 kts 226°
2026-05-06 19:21 43.65214 7.21304 641 ft 188 kts 150°
2026-05-06 19:21 43.65259 7.23062 1977 ft 286 kts 47°
2026-05-06 19:21 43.66490 7.24811 1834 ft 222 kts 44°
2026-05-06 19:21 43.67690 7.26069 995 ft 238 kts 346°
2026-05-06 19:22 43.67671 7.24335 526 ft 234 kts 225°
2026-05-06 19:22 43.66639 7.22955 54 ft 191 kts 224°
2026-05-06 19:22 43.65755 7.21756 114 ft 195 kts 220°
2026-05-06 19:22 43.65234 7.22670 1945 ft 228 kts 49°
2026-05-06 19:23 43.66258 7.24168 1532 ft 205 kts 37°
2026-05-06 19:23 43.67555 7.24959 302 ft 226 kts 319°
2026-05-06 19:23 43.67356 7.23303 151 ft 207 kts 222°
2026-05-06 19:23 43.66408 7.22087 22 ft 161 kts 225°
2026-05-06 19:24 43.65576 7.20787 538 ft 211 kts 281°
2026-05-06 19:24 43.66626 7.20915 2557 ft 268 kts 43°
2026-05-06 19:24 43.67850 7.22669 1514 ft 242 kts 40°
2026-05-06 19:24 43.68777 7.24327 1004 ft 202 kts 114°
2026-05-06 19:25 43.67910 7.24759 202 ft 178 kts 226°
2026-05-06 19:25 43.67042 7.23512 111 ft 175 kts 223°
2026-05-06 19:25 43.66193 7.22341 22 ft 156 kts 224°
2026-05-06 19:25 43.65192 7.21508 1095 ft 191 kts 121°
2026-05-06 19:26 43.65609 7.23086 2338 ft 215 kts 41°
2026-05-06 19:26 43.66593 7.24517 1568 ft 196 kts 33°
2026-05-06 19:26 43.67486 7.24114 396 ft 166 kts 231°
2026-05-06 19:26 43.66593 7.22858 28 ft 177 kts 221°
2026-05-06 19:27 43.65969 7.22006 21 ft 60 kts 248°
2026-05-06 19:27 43.65841 7.21763 20 ft 10 kts 298°
2026-05-06 19:27 43.65855 7.21752 20 ft 3 kts
2026-05-06 19:27 43.65924 7.21763 19 ft 13 kts
2026-05-06 19:28 43.65989 7.21789 19 ft 8 kts 10°
2026-05-06 19:28 43.66081 7.21835 20 ft 20 kts 15°
2026-05-06 19:28 43.66234 7.21894 20 ft 30 kts 43°
2026-05-06 19:28 43.66393 7.22141 22 ft 39 kts 63°
2026-05-06 19:29 43.66590 7.22440 19 ft 44 kts 43°
2026-05-06 19:29 43.66663 7.22606 19 ft 11 kts 116°
2026-05-06 19:29 43.66659 7.22613 21 ft 0 kts 132°
2026-05-06 19:32 43.66652 7.22621 20 ft 6 kts 140°
2026-05-06 19:32 43.66603 7.22686 19 ft 0 kts 147°
2026-05-06 19:35 43.66577 7.22716 19 ft 18 kts 142°
2026-05-06 19:35 43.66499 7.22763 20 ft 4 kts 220°
2026-05-06 19:35 43.66482 7.22740 20 ft 4 kts 226°
2026-05-06 19:35 43.66423 7.22657 20 ft 57 kts 225°
2026-05-06 19:36 43.65603 7.21549 399 ft 223 kts 226°
2026-05-06 19:36 43.64577 7.20071 4310 ft 300 kts 225°
2026-05-06 19:36 43.62410 7.19942 3966 ft 379 kts 152°
2026-05-06 19:36 43.59965 7.21755 3861 ft 415 kts 153°
2026-05-06 19:37 43.57397 7.23710 3713 ft 426 kts 152°
2026-05-06 19:37 43.54789 7.25761 3572 ft 434 kts 152°
2026-05-06 19:37 43.52281 7.27768 3531 ft 397 kts 152°
2026-05-06 19:37 43.51413 7.28502 6585 ft 120 kts 339°
2026-05-06 19:38 43.51242 7.29153 3526 ft 273 kts 150°
2026-05-06 19:38 43.49055 7.30957 3697 ft 475 kts 152°
2026-05-06 19:38 43.45493 7.33645 3811 ft 675 kts 157°
2026-05-06 19:38 43.42456 7.35945 3725 ft 400 kts 149°
2026-05-06 19:39 43.40184 7.37880 3735 ft 384 kts 152°
2026-05-06 19:39 43.38022 7.39711 3777 ft 347 kts 151°
2026-05-06 19:39 43.36036 7.41498 3884 ft 334 kts 142°
2026-05-06 19:39 43.34979 7.44084 4232 ft 297 kts 58°
2026-05-06 19:40 43.36548 7.45223 3744 ft 269 kts 353°
2026-05-06 19:40 43.38397 7.45108 3650 ft 270 kts 351°
2026-05-06 19:40 43.40261 7.44814 3701 ft 267 kts 344°
2026-05-06 19:40 43.41993 7.44063 3959 ft 258 kts 334°
2026-05-06 19:41 43.43602 7.43018 4200 ft 254 kts 330°
2026-05-06 19:41 43.45254 7.42209 4437 ft 253 kts 351°
2026-05-06 19:41 43.46409 7.42327 4618 ft 250 kts
2026-05-06 19:41 43.48109 7.42416 4688 ft 241 kts 340°
2026-05-06 19:42 43.50040 7.40827 4319 ft 261 kts 318°
2026-05-06 19:42 43.51028 7.39712 4106 ft 283 kts 317°
2026-05-06 19:42 43.52571 7.37876 3803 ft 304 kts 316°
2026-05-06 19:42 43.54130 7.35918 3481 ft 299 kts 314°
2026-05-06 19:43 43.55619 7.33973 3121 ft 291 kts 314°
2026-05-06 19:43 43.57075 7.32097 2822 ft 281 kts 310°
2026-05-06 19:43 43.58486 7.30268 2515 ft 274 kts 315°
2026-05-06 19:43 43.59913 7.28505 2207 ft 285 kts 316°
2026-05-06 19:44 43.61415 7.26637 1878 ft 292 kts 315°
2026-05-06 19:44 43.62882 7.24786 1568 ft 276 kts 316°
2026-05-06 19:44 43.64260 7.23086 1488 ft 259 kts 316°
2026-05-06 19:44 43.65789 7.21167 1667 ft 332 kts 316°
2026-05-06 19:45 43.67663 7.19643 2104 ft 291 kts 355°
2026-05-06 19:45 43.69033 7.21010 1852 ft 236 kts 68°
2026-05-06 19:45 43.69073 7.23089 1037 ft 210 kts 121°
2026-05-06 19:45 43.67969 7.24231 523 ft 205 kts 179°
2026-05-06 19:46 43.66866 7.23283 177 ft 188 kts 226°
2026-05-06 19:46 43.66020 7.22115 21 ft 148 kts 223°
2026-05-06 19:46 43.65551 7.21436 22 ft 85 kts 233°
2026-05-06 19:46 43.65401 7.20990 19 ft 14 kts 256°
2026-05-06 19:47 43.65408 7.20957 19 ft 0 kts 332°
2026-05-06 19:47 43.65432 7.20938 19 ft 9 kts 331°
2026-05-06 19:47 43.65503 7.20929 19 ft 25 kts 351°
2026-05-06 19:47 43.65733 7.20890 19 ft 34 kts 11°
2026-05-06 19:48 43.65908 7.21074 19 ft 29 kts 47°
2026-05-06 19:48 43.66027 7.21245 19 ft 25 kts 45°
2026-05-06 19:48 43.66216 7.21507 19 ft 50 kts 46°
2026-05-06 19:48 43.66477 7.21866 19 ft 51 kts 47°
2026-05-06 19:49 43.66471 7.22128 20 ft 15 kts 148°
2026-05-06 19:49 43.66427 7.22117 22 ft 0 kts 217°
2026-05-06 19:51 43.66417 7.22104 21 ft 3 kts 225°
2026-05-06 19:52 43.66408 7.22091 20 ft 0 kts 225°
2026-05-06 19:52 43.66402 7.22082 20 ft 8 kts 225°
2026-05-06 19:52 43.66320 7.21973 21 ft 20 kts 223°
2026-05-06 19:52 43.66215 7.21845 20 ft 17 kts 229°
2026-05-06 19:53 43.66185 7.21804 20 ft 6 kts 223°
2026-05-06 19:53 43.66149 7.21753 20 ft 6 kts 228°
2026-05-06 19:53 43.66050 7.21616 18 ft 68 kts 223°
2026-05-06 19:53 43.65254 7.20533 982 ft 155 kts 224°
2026-05-06 19:54 43.64373 7.19529 4847 ft 246 kts 218°
2026-05-06 19:54 43.62897 7.17985 5260 ft 274 kts 219°
2026-05-06 19:54 43.61416 7.16456 5651 ft 290 kts 218°
2026-05-06 19:54 43.59742 7.14816 5733 ft 310 kts 216°
2026-05-06 19:55 43.57886 7.13100 5866 ft 328 kts 214°
2026-05-06 19:55 43.56005 7.11373 5935 ft 343 kts 225°
2026-05-06 19:55 43.54570 7.07679 4060 ft 566 kts 249°
2026-05-06 19:55 43.53010 7.01781 657 ft 663 kts 251°
2026-05-06 19:56 43.52553 6.97199 1141 ft 404 kts
2026-05-06 19:56 43.54133 6.99479 2092 ft 338 kts 59°
2026-05-06 19:56 43.55246 7.02395 2438 ft 355 kts 60°
2026-05-06 19:56 43.56361 7.05491 2311 ft 365 kts 63°
2026-05-06 19:57 43.57514 7.08699 2191 ft 379 kts 60°
2026-05-06 19:57 43.58829 7.11823 2090 ft 370 kts 55°
2026-05-06 19:57 43.60446 7.14484 1831 ft 366 kts 45°
2026-05-06 19:57 43.62237 7.17071 1758 ft 325 kts 44°
2026-05-06 19:58 43.63654 7.19014 1843 ft 275 kts 41°
2026-05-06 19:58 43.64198 7.21185 1696 ft 227 kts 56°
2026-05-06 19:58 43.65157 7.22823 1403 ft 215 kts 45°
2026-05-06 19:58 43.66193 7.24217 1049 ft 218 kts 51°
2026-05-06 19:59 43.67311 7.25253 709 ft 176 kts 290°
2026-05-06 19:59 43.67103 7.23634 100 ft 188 kts 224°
2026-05-06 19:59 43.66268 7.22441 22 ft 154 kts 225°
2026-05-06 19:59 43.65858 7.21836 19 ft 52 kts 231°
2026-05-06 20:00 43.65833 7.21724 20 ft 0 kts 309°
2026-05-06 20:02 43.65833 7.21723 20 ft 0 kts 307°